Find Starlink 37060

NORAD ID: 68150 Int'l Des: 2026-049 Owner: SPXS Country: US Constellation: starlink operational
LEOCIRCULARRETROGRADE

当前视图

正在加载3D地球...

About Starlink 37060

Starlink 37060 (NORAD 68150) is a starlink constellation satellite (v2 mini) launched Mar 13, 2026 by SPXS of US. It operates in LEO, CIRCULAR, RETROGRADE orbit with a mass of 575.00 kg.

关于 Starlink 37060

正在加载描述...

即将过境

Passes for default location (London). Set your location on the main map for personalized predictions.

高度历史

Loading altitude history...

两行轨道根数

1 68150U 26049J 26164.63897216 .00008521 00000-0 26597-3 0 9990
2 68150 97.2834 186.0449 0001049 111.4426 248.6928 15.33442943 14350
Epoch: Jun 13, 2026 • Age: 14 hours

当前状态

高度 475.4 km
速度 7.63 km/s
星下点 60.66°N, 174.43°W
发射日期 Mar 13, 2026
运行时间 0.2 years
类型 internet

技术详情

分类 Payload
质量 575.00 kg
干质量 530.00 kg
总质量 575.00 kg
长度 0.30 m
直径 4.10 m
跨度 29.00 m
形状 Box + pan
制造商 SPXS
平台类型 Starlink V2MO
阶段状态 In Orbit
所有者/国家 SPXS/US

Most Searched